Find Local Weather

World > North America > United States > New York

Mohawk, New York Regional Weather

Lat: 43.01N, Lon: 75.01W
Wx Zone: NYZ038
Warning FLW WEATHER ALERT - SEVERE THUNDERSTORM WATCH (More Info. Click Here) Warning
Feedback
Expires:201808172300;;223176
ASUS41 KGYX 172210
RWRGYX
WEATHER ROUNDUP FOR MAINE AND NEW HAMPSHIRE
NATIONAL WEATHER SERVICE GRAY ME
600 PM EDT FRI AUG 17 2018


MAZ007-012-024-CTZ003-RIZ002-NYZ038-NYZ072-172300-
SOUTHERN NEW ENGLAND AND NY
  
CITY           SKY/WX    TMP DP  RH WIND       PRES   REMARKS
BOSTON         LGT RAIN  75  69  81 NE8       29.96F                  
WORCESTER      PTSUNNY   80  71  74 S8        30.00F                  
NANTUCKET      FOG       73  73 100 S7        30.01F VSB 1/2          
PROVIDENCE     PTSUNNY   83  72  69 S17       29.98R                  
HARTFORD       TSTM      80  75  84 SW8       29.95R                  
ALBANY         PTSUNNY   83  71  67 S15G23    29.88F                  
NEW YORK CITY  PTSUNNY   85  73  67 S16G25    29.93F HX  91           
$$


SKY/WX - Weather  TMP - Temperature  DP - Dewpoint  RH - Relative Humidity
WIND - Wind Direction/Speed PRES - Barometric Pressure